Skip Page Navigation
NASA JPL Caltech
NASA Logo - Jet Propulsion Laboratory + View the NASA Portal
+ Center for Near-Earth Object Studies
JPL Home Earth Solar System Stars & Galaxies Technology
JPL Solar System Dynamics
BODIES ORBITS EPHEMERIDES TOOLS PHYSICAL DATA DISCOVERY FAQ SITE MAP
JPL Small-Body Database Browser
Search: [ help ]  
227963 (2007 HR17)
Classification: Main-belt Asteroid          SPK-ID: 2227963
Ephemeris | Orbit Diagram | Orbital Elements | Mission Design | Physical Parameters | Discovery Circumstances | Close-Approach Data ]

[ show orbit diagram ]
Orbital Elements at Epoch 2459200.5 (2020-Dec-17.0) TDB
Reference: JPL 16 (heliocentric ecliptic J2000)
 Element Value Uncertainty (1-sigma)   Units 
e .1120831403059478 4.4756e-08  
a 2.578436016807552 2.0977e-08 au
q 2.289436810965802 1.1877e-07 au
i 6.561739959681756 5.3994e-06 deg
node 211.4785771995353 5.3516e-05 deg
peri 14.90510037904239 6.1444e-05 deg
M 92.25015898086815 3.2775e-05 deg
tp 2458812.976906940379
(2019-Nov-25.47690694)
0.00013571 TDB
period 1512.282634985987
4.14
1.8455e-05
5.053e-08
d
yr
n .2380507397701725 2.905e-09 deg/d
Q 2.867435222649302 2.3328e-08 au
  Orbit Determination Parameters
   # obs. used (total)      278  
   data-arc span      7240 days (19.82 yr)  
   first obs. used      2000-09-22  
   last obs. used      2020-07-19  
   planetary ephem.      DE441  
   SB-pert. ephem.      SB441-N16  
   condition code      0  
   norm. resid. RMS      .52814  
   source      ORB  
   producer      Otto Matic  
   solution date      2021-Apr-14 00:41:50  

Additional Information
 Earth MOID = 1.27971 au 
 Jupiter MOID = 2.11043 au 
 T_jup = 3.408 
[ hide covariance matrix ]
Orbital Elements at Epoch 2457238.5 (2015-Aug-04.0) TDB
Reference: JPL 16 (heliocentric ecliptic J2000)
 Element Value Uncertainty (1-sigma)   Units 
e .1109052023836755 4.4916e-08  
q 2.291933827529874 1.1878e-07 au
tp 2457299.455729839992
(2015-Oct-03.95572984)
0.00013032 TDB
node 211.5715340274641 5.3494e-05 deg
peri 14.54291710402844 6.1517e-05 deg
i 6.562823193868098 5.3994e-06 deg
  Orbit Determination Parameters
   # obs. used (total)      278  
   data-arc span      7240 days (19.82 yr)  
   first obs. used      2000-09-22  
   last obs. used      2020-07-19  
   planetary ephem.      DE441  
   SB-pert. ephem.      SB441-N16  
   condition code      0  
   norm. resid. RMS      .52814  
   source      ORB  
   producer      Otto Matic  
   solution date      2021-Apr-14 00:41:50  

Additional Information
 Jupiter MOID = 2.11043 au 
 T_jup = 3.408 
Orbit Covariance (6×6)
  e q tp node peri i
e 2.017411906642435E-15 -5.271183912463937E-15 -1.286416362256007E-12 -2.287161607267154E-14 -2.761592968389774E-13 5.418777005398065E-16
q -5.271183912463937E-15 1.410764393084294E-14 4.0042924416644E-12 6.310722465328448E-14 8.61064278431182E-13 -1.344212811892042E-15
tp -1.286416362256007E-12 4.0042924416644E-12 1.698222505680903E-8 4.189712166803931E-11 4.003670669803915E-9 -6.90894448629576E-12
node -2.287161607267154E-14 6.310722465328448E-14 4.189712166803931E-11 2.861648452728129E-9 -2.832780550075802E-9 -5.652953914706895E-11
peri -2.761592968389774E-13 8.61064278431182E-13 4.003670669803915E-9 -2.832780550075802E-9 3.78438890831107E-9 5.462604020533456E-11
i 5.418777005398065E-16 -1.344212811892042E-15 -6.90894448629576E-12 -5.652953914706895E-11 5.462604020533456E-11 2.915322626603988E-11

Ephemeris | Orbit Diagram | Orbital Elements | Mission Design | Physical Parameters | Discovery Circumstances | Close-Approach Data ]

Physical Parameter Table
Parameter Symbol Value Units Sigma Reference Notes
absolute magnitude H 16.49   n/a E2021B55  
diameter diameter 3.483 km 0.612 urn:nasa:pds:neowise_diameters_albedos::2.0[mainbelt] (http://adsabs.harvard.edu/abs/2011ApJ...741...68M)  
geometric albedo albedo 0.037   0.010 urn:nasa:pds:neowise_diameters_albedos::2.0[mainbelt] (http://adsabs.harvard.edu/abs/2011ApJ...741...68M)  

227963 (2007 HR17)          Discovered 2007-Apr-16 by LINEAR at Socorro
Reference: 20091202/Numbers.arcLast Updated: 2009-12-04

[ show close-approach data ]
Ephemeris | Orbit Diagram | Orbital Elements | Mission Design | Physical Parameters | Discovery Circumstances | Close-Approach Data ]
ABOUT SSD CREDITS/AWARDS PRIVACY/COPYRIGHT GLOSSARY LINKS
FirstGov 2021-May-18 12:29 UT
(server date/time)  
NASA Home Page
Site Manager:   Ryan S. Park
Webmaster  Alan B. Chamberlin